Here is the Quick Look data you requested

The Data originates at the National Weather Service, and is made available here by the UAlbany Department of Atmospheric and Environmental Sciences

Surface Observations

KNUI 180153Z AUTO 10006KT 8SM -RA BKN028 OVC075 04/02 A2993 RMK AO2 SLP135
 P0003 T00440022=
KNUI 180203Z AUTO 13008KT 9SM -RA SCT028 BKN075 OVC095 04/02 A2995 RMK AO2
 P0000 T00440022
KNUI 180203Z AUTO 13008KT 9SM -RA SCT028 BKN075 OVC095 04/02 A2995 RMK AO2
 P0000 T00440022=
KNUI 180203Z AUTO 13008KT 9SM -RA SCT028 BKN075 OVC095 04/02 A2995=
KNUI 180235Z AUTO 14004KT 4SM RA BR FEW006 BKN070 OVC090 05/03 A2994 RMK AO2
 P0004 T00500028
KNUI 180235Z AUTO 14004KT 4SM RA BR FEW006 BKN070 OVC090 05/03 A2994=
KNUI 180235Z AUTO 14004KT 4SM RA BR FEW006 BKN070 OVC090 05/03 A2994 RMK AO2
 P0004 T00500028=
KNUI 180245Z AUTO 16006KT 6SM -RA BR SCT006 BKN019 OVC075 05/03 A2995 RMK AO2
 P0005 T00500028=
KNUI 180245Z AUTO 16006KT 6SM -RA BR SCT006 BKN019 OVC075 05/03 A2995=
KNUI 180253Z AUTO 14004KT 5SM RA BR BKN006 BKN017 OVC027 05/03 A2994 RMK AO2
 SLP139 P0006 60010 T00500033 55015
KNUI 180253Z AUTO 14004KT 5SM RA BR BKN006 BKN017 OVC027 05/03 A2994 RMK AO2
 SLP139 P0006 60010 T00500033 55015=
KNUI 180328Z AUTO 17005KT 6SM -RA BR OVC004 05/03 A2994 RMK AO2 CIG 003V010
 P0006 T00500033
KNUI 180328Z AUTO 17005KT 6SM -RA BR OVC004 05/03 A2994=
KNUI 180328Z AUTO 17005KT 6SM -RA BR OVC004 05/03 A2994 RMK AO2 CIG 003V010
 P0006 T00500033=
KNUI 180353Z AUTO 19005KT 6SM -RA BR OVC004 06/04 A2993 RMK AO2 SLP136 P0007
 T00560039
KNUI 180353Z AUTO 19005KT 6SM -RA BR OVC004 06/04 A2993 RMK AO2 SLP136 P0007
 T00560039=
KNUI 180413Z AUTO 18004KT 6SM -RA BR BKN005 OVC027 06/04 A2992 RMK AO2 P0002
 T00560039
KNUI 180413Z AUTO 18004KT 6SM -RA BR BKN005 OVC027 06/04 A2992 RMK AO2 P0002
 T00560039=
KNUI 180413Z AUTO 18004KT 6SM -RA BR BKN005 OVC027 06/04 A2992=
KNUI 180445Z AUTO 21003KT 8SM -RA OVC004 06/04 A2991 RMK AO2 P0003 T00560039
KNUI 180445Z AUTO 21003KT 8SM -RA OVC004 06/04 A2991=
KNUI 180445Z AUTO 21003KT 8SM -RA OVC004 06/04 A2991 RMK AO2 P0003 T00560039=
KNUI 180453Z AUTO 21003KT 7SM -RA OVC004 06/04 A2991 RMK AO2 SLP129 P0003
 T00560039 400611011
KNUI 180453Z AUTO 21003KT 7SM -RA OVC004 06/04 A2991 RMK AO2 SLP129 P0003
 T00560039 400611011=
KNUI 180548Z AUTO 18004KT 7SM -RA SCT004 BKN018 OVC048 06/04 A2989 RMK AO2 P0003
KNUI 180548Z AUTO 18004KT 7SM -RA SCT004 BKN018 OVC048 06/04 A2989 RMK AO2
 P0003=
KNUI 180548Z AUTO 18004KT 7SM -RA SCT004 BKN018 OVC048 06/04 A2989=
KNUI 180553Z AUTO 18004KT 7SM -RA SCT006 BKN018 OVC090 06/04 A2989 RMK AO2
 SLP120 P0004 60024 T00560039 10056 20044 58020
KNUI 180553Z AUTO 18004KT 7SM -RA SCT006 BKN018 OVC090 06/04 A2989 RMK AO2
 SLP120 P0004 60024 T00560039 10056 20044 58020=
KNUI 180602Z AUTO 18004KT 8SM -RA FEW006 SCT018 OVC095 06/04 A2988 RMK AO2
 P0000 T00560039
KNUI 180602Z AUTO 18004KT 8SM -RA FEW006 SCT018 OVC095 06/04 A2988 RMK AO2
 P0000 T00560039=
KNUI 180602Z AUTO 18004KT 8SM -RA FEW006 SCT018 OVC095 06/04 A2988=
KNUI 180653Z AUTO 17004KT 6SM -RA BR BKN006 OVC090 06/04 A2984 RMK AO2 CIG
 004V013 PRESFR SLP104 P0003 T00560039
KNUI 180653Z AUTO 17004KT 6SM -RA BR BKN006 OVC090 06/04 A2984 RMK AO2 CIG
 004V013 PRESFR SLP104 P0003 T00560039=
KNUI 180742Z AUTO 20007KT 7SM -RA SCT008 OVC090 06/04 A2985 RMK AO2 P0003
 T00560039
KNUI 180742Z AUTO 20007KT 7SM -RA SCT008 OVC090 06/04 A2985 RMK AO2 P0003
 T00560039=
KNUI 180742Z AUTO 20007KT 7SM -RA SCT008 OVC090 06/04 A2985=
KNUI 180753Z AUTO 18004KT 9SM -RA OVC090 06/04 A2983 RMK AO2 SLP102 P0003
 T00560039
KNUI 180753Z AUTO 18004KT 9SM -RA OVC090 06/04 A2983 RMK AO2 SLP102 P0003
 T00560039=
KNUI 180803Z AUTO 19003KT 8SM -RA FEW007 OVC090 06/04 A2983 RMK AO2 P0001
 T00560039
KNUI 180803Z AUTO 19003KT 8SM -RA FEW007 OVC090 06/04 A2983 RMK AO2 P0001
 T00560039=
KNUI 180803Z AUTO 19003KT 8SM -RA FEW007 OVC090 06/04 A2983=
KNUI 180753Z AUTO 18004KT 9SM -RA OVC090 06/04 A2983 RMK AO2 SLP102 P0003
 T00560039=
KNUI 180853Z AUTO 17006KT 5SM RA BR FEW009 SCT065 OVC075 06/04 A2979 RMK AO2
 SLP087 P0005 60011 T00610044 58017
KNUI 180853Z AUTO 17006KT 5SM RA BR FEW009 SCT065 OVC075 06/04 A2979 RMK AO2
 SLP087 P0005 60011 T00610044 58017=
KNUI 180953Z AUTO 18005KT 9SM -RA FEW003 BKN070 OVC095 07/05 A2976 RMK AO2
 SLP076 P0005 T00670050
KNUI 180953Z AUTO 18005KT 9SM -RA FEW003 BKN070 OVC095 07/05 A2976 RMK AO2
 SLP076 P0005 T00670050=
KNUI 181013Z AUTO 17004KT 8SM -RA BKN005 OVC095 07/05 A2975 RMK AO2 P0000
 T00670050
KNUI 181013Z AUTO 17004KT 8SM -RA BKN005 OVC095 07/05 A2975 RMK AO2 P0000
 T00670050=
KNUI 181013Z AUTO 17004KT 8SM -RA BKN005 OVC095 07/05 A2975=
KNUI 181053Z AUTO 25003KT 8SM -RA OVC005 07/05 A2978 RMK AO2 SLP084 P0002
 T00670050
KNUI 181053Z AUTO 25003KT 8SM -RA OVC005 07/05 A2978 RMK AO2 SLP084 P0002
 T00670050=
KNUI 181153Z AUTO 29007KT 10SM -RA OVC006 07/04 A2983 RMK AO2 SLP100 P0000
 60018 70042 T00670044 10072 20056 53013
KNUI 181153Z AUTO 29007KT 10SM -RA OVC006 07/04 A2983 RMK AO2 SLP100 P0000
 60018 70042 T00670044 10072 20056 53013=
KNUI 181253Z AUTO 30004KT 10SM OVC008 07/04 A2987 RMK AO2 RAE46 SLP113 P0001
 T00670044
KNUI 181253Z AUTO 30004KT 10SM OVC008 07/04 A2987 RMK AO2 RAE46 SLP113 P0001
 T00670044=
KNUI 181325Z AUTO 28004KT 10SM OVC010 07/04 A2991 RMK AO2 CIG 007V013 T00670044
KNUI 181325Z AUTO 28004KT 10SM OVC010 07/04 A2991=
KNUI 181325Z AUTO 28004KT 10SM OVC010 07/04 A2991 RMK AO2 CIG 007V013 T00670044=
KNUI 181353Z AUTO 25005KT 10SM FEW010 BKN025 OVC029 07/04 A2991 RMK AO2 SLP129
 T00670044
KNUI 181353Z AUTO 25005KT 10SM FEW010 BKN025 OVC029 07/04 A2991 RMK AO2 SLP129
 T00670044=
KNUI 181453Z AUTO 23006KT 10SM BKN031 08/06 A2993 RMK AO2 SLP133 60001
 T00780056 51020
KNUI 181453Z AUTO 23006KT 10SM BKN031 08/06 A2993 RMK AO2 SLP133 60001
 T00780056 51020=
KNUI 181500Z AUTO 25007KT 10SM FEW009 BKN031 08/05 A2993 RMK AO2 T00780050
KNUI 181500Z AUTO 25007KT 10SM FEW009 BKN031 08/05 A2993=
KNUI 181500Z AUTO 25007KT 10SM FEW009 BKN031 08/05 A2993 RMK AO2 T00780050=
KNUI 181553Z AUTO 28008KT 10SM CLR 09/06 A2996 RMK AO2 SLP146 T00940056
KNUI 181553Z AUTO 28008KT 10SM CLR 09/06 A2996 RMK AO2 SLP146 T00940056=
KNUI 181653Z AUTO 26006KT 10SM FEW019 SCT025 SCT036 10/06 A2998 RMK AO2 SLP151
 T01000056
KNUI 181653Z AUTO 26006KT 10SM FEW019 SCT025 SCT036 10/06 A2998 RMK AO2 SLP151
 T01000056=
KNUI 181753Z AUTO 25010KT 10SM BKN033 11/05 A2999 RMK AO2 SLP153 60001
 T01110050 10117 20067 51020
KNUI 181753Z AUTO 25010KT 10SM BKN033 11/05 A2999 RMK AO2 SLP153 60001
 T01110050 10117 20067 51020=
KNUI 181853Z AUTO 28008KT 10SM CLR 12/04 A2999 RMK AO2 SLP155 T01220039
KNUI 181853Z AUTO 28008KT 10SM CLR 12/04 A2999 RMK AO2 SLP155 T01220039=
KNUI 181953Z AUTO 30010G16KT 10SM CLR 13/02 A3001 RMK AO2 SLP161 T01280017
KNUI 181953Z AUTO 30010G16KT 10SM CLR 13/02 A3001 RMK AO2 SLP161 T01280017=
KNUI 182053Z AUTO VRB06KT 10SM FEW050 11/01 A3005 RMK AO2 SLP174 T01110006 53021
KNUI 182053Z AUTO VRB06KT 10SM FEW050 11/01 A3005 RMK AO2 SLP174 T01110006
 53021=
KNUI 182153Z AUTO VRB06G16KT 10SM BKN050 BKN060 10/M02 A3010 RMK AO2 SLP191
 T01001017
KNUI 182153Z AUTO VRB06G16KT 10SM BKN050 BKN060 10/M02 A3010 RMK AO2 SLP191
 T01001017=
KNUI 182253Z AUTO 32010G21KT 10SM OVC060 09/M03 A3016 RMK AO2 SLP212 T00891028
KNUI 182253Z AUTO 32010G21KT 10SM OVC060 09/M03 A3016 RMK AO2 SLP212 T00891028=
KNUI 182353Z AUTO 31009G18KT 290V360 10SM BKN060 08/M04 A3022 RMK AO2 SLP232
 T00831039 10128 20083 53058
KNUI 182353Z AUTO 31009G18KT 290V360 10SM BKN060 08/M04 A3022 RMK AO2 SLP232
 T00831039 10128 20083 53058=
KNUI 190053Z AUTO 32008G16KT 290V360 10SM CLR 07/M03 A3025 RMK AO2 SLP243
 T00721033
KNUI 190053Z AUTO 32008G16KT 290V360 10SM CLR 07/M03 A3025 RMK AO2 SLP243
 T00721033=
KNUI 190153Z AUTO 32010G15KT 10SM CLR 07/M03 A3029 RMK AO2 SLP256 T00671033
KNUI 190153Z AUTO 32010G15KT 10SM CLR 07/M03 A3029 RMK AO2 SLP256 T00671033=
KNUI 190253Z AUTO 30010G15KT 10SM CLR 06/M04 A3033 RMK AO2 SLP269 T00611044
 53038
KNUI 190253Z AUTO 30010G15KT 10SM CLR 06/M04 A3033 RMK AO2 SLP269 T00611044
 53038=
KNUI 190353Z AUTO 31011G22KT 290V010 10SM CLR 06/M06 A3036 RMK AO2 SLP279
 T00611056
KNUI 190353Z AUTO 31011G22KT 290V010 10SM CLR 06/M06 A3036 RMK AO2 SLP279
 T00611056=
KNUI 190453Z AUTO 31006KT 10SM CLR 06/M06 A3039 RMK AO2 SLP291 T00561056
 401280056
KNUI 190453Z AUTO 31006KT 10SM CLR 06/M06 A3039 RMK AO2 SLP291 T00561056
 401280056=
KNUI 190553Z AUTO 32008G14KT 10SM CLR 05/M06 A3043 RMK AO2 SLP302 T00501056
 10083 20050 53033
KNUI 190553Z AUTO 32008G14KT 10SM CLR 05/M06 A3043 RMK AO2 SLP302 T00501056
 10083 20050 53033=
KNUI 190653Z AUTO VRB06KT 10SM CLR 04/M05 A3045 RMK AO2 SLP310 T00391050
KNUI 190653Z AUTO VRB06KT 10SM CLR 04/M05 A3045 RMK AO2 SLP310 T00391050=
KNUI 190753Z AUTO VRB05KT 10SM CLR 03/M06 A3047 RMK AO2 SLP316 T00331056
KNUI 190753Z AUTO VRB05KT 10SM CLR 03/M06 A3047 RMK AO2 SLP316 T00331056=